Flag for Canada Weather past 2 weeks in Annapolis County, Nova Scotia, Canada

Now
56 °F

Refreshingly cool.


Feels Like: 57 °F
Forecast: 50 / 66 °F
Wind: 3 mph from Southwest

Location: Kejimkujik 1

Current Time: May 24, 2015 at 11:25:15 PM

Latest Report: May 24, 2015 at 10:00 PM


Visibility: N/A

Pressure: 30.10 "Hg

Humidity: 58%

Dew point: 42 °F

Location of Annapolis CountyLocation

Historic Weather in Annapolis County — Graph

°F

Annapolis County temperature yesterday

Maximum temperature yesterday: 50 °F (at 5:00 PM)
Minimum temperature yesterday: 37 °F (at 6:00 AM)
Average temperature yesterday: 43 °F

Past Weeks' High & Low Weather Summary

 TemperatureHumidityPressure
High76 °F (May 10, 3:00 PM)100% (May 11, 4:00 AM)30.31 "Hg (May 11, 4:00 AM)
Low31 °F (May 14, 6:00 AM)19% (May 16, 2:00 PM)29.51 "Hg (May 20, 3:00 PM)
Average52 °F73%30.04 "Hg
* Reported May 9 10:00 PM — May 24 10:00 PM, Annapolis County, Weather by CustomWeather, © 2015

Note: Actual official high and low records may vary slightly from our data, if they occured in-between our weather recording intervals... More about our weather records

Advertising

Annapolis County weather history for previous 24 hours

 ConditionsComfort  
Time TempWeatherWind HumidityBarometerVisibility
10:00 PM
Sun, May 24
56 °FRefreshingly cool.3 mph58%30.10 "HgN/A
9:00 PM58 °FRefreshingly cool.7 mph54%30.08 "HgN/A
8:00 PM61 °FRefreshingly cool.7 mph48%30.07 "HgN/A
7:00 PM67 °FMild.6 mph39%30.05 "HgN/A
6:00 PM69 °FMild.8 mph38%30.05 "HgN/A
5:00 PM70 °FMild.9 mph37%30.04 "HgN/A
4:00 PM67 °FMild.8 mph40%30.04 "HgN/A
3:00 PM69 °FMild.8 mph39%30.04 "HgN/A
2:00 PM66 °FMild.9 mph44%30.06 "HgN/A
1:00 PM61 °FRefreshingly cool.8 mph52%30.08 "HgN/A
12:00 PM56 °FRefreshingly cool.7 mph59%30.10 "HgN/A
11:00 AM56 °FRefreshingly cool.9 mph52%30.12 "HgN/A
10:00 AM56 °FCool.10 mph61%30.13 "HgN/A
9:00 AM51 °FCool.8 mph74%30.13 "HgN/A
8:00 AM46 °FCool.6 mph89%30.15 "HgN/A
7:00 AM41 °FQuite cool.6 mph94%30.17 "HgN/A
6:00 AM38 °FChilly.7 mph95%30.18 "HgN/A
5:00 AM39 °FChilly.5 mph95%30.19 "HgN/A
4:00 AM39 °FChilly.5 mph91%30.20 "HgN/A
3:00 AM39 °FChilly.6 mph88%30.20 "HgN/A
2:00 AM39 °FChilly.6 mph86%30.21 "HgN/A
1:00 AM40 °FChilly.6 mph82%30.22 "HgN/A
12:00 AM40 °FChilly.5 mph82%30.22 "HgN/A
11:00 PM
Sat, May 23
40 °FQuite cool.6 mph79%30.20 "HgN/A
Weather by CustomWeather, © 2015

See weather overviewHow to use our weather pages